Accueil
METAR-TAF:

METAR-TAF

Aéroports :

Aéroport d'Épinal-Mirecourt

Épinal, France

latitude: 48-19-31N, longitude: 6-04-00E, altitude: 330 m

Observation

Le bulletin a été fait il y a 21 minutes, à 17:30 UTC
Vent 3 kt de nord-ouest
Température 13°C
Humidité 88%
Pression 1020 hPa
Visibilité: 3100 m
Nuages fragmentés à une hauteur de 3600 ft
Ciel couvert à une hauteur de 22000 ft
brume

METAR: LFSG 281730Z AUTO 32003KT 3100 BR BKN036 OVC220 13/11 Q1020

Heure: 19:51 (17:51 UTC)


TAF: absent

Observations et prévisions météorologiques de plus de 4000 aéroports (messages METAR et TAF).

Les stations disponibles sont représentées par des disques jaunes et rouges sur la carte.

Passer la souris dessus pour voir le nom de la station.

Cliquer dessus pour voir les observations et prévisions météorologiques.

Pour changer de carte: cliquez sur les boutons verts avec une croix noire pour zoomer, sur le bouton vert avec un tiret pour effectuer un zoom arrière, ou sur les flèches vertes pour les cartes adjacentes.


METAR-TAF: